Miscellaneous Local Product
Issued by NWS North Platte, NE

Home | Current Version | Previous Version | Text Only | Print | Product List | Glossary On
Versions: 1 2 3 4 5 6 7 8 9 10 11 12 13 14 15 16 17 18 19 20 21 22 23 24 25 26 27 28 29 30 31 32 33 34 35 36 37 38 39 40 41 42 43 44 45 46 47 48 49 50
000
AXUS43 KLBF 270510
MISLBF


WESTERN AND NORTH CENTRAL NEBRASKA HOURLY WEATHER ROUNDUP
NATIONAL WEATHER SERVICE NORTH PLATTE NE
1200 AM CDT SAT AUG 27 2016

NOTE: "FAIR" INDICATES FEW OR NO CLOUDS BELOW 12,000 FEET WITH NO
SIGNIFICANT WEATHER AND/OR OBSTRUCTIONS TO VISIBILITY.

NOTE: STATIONS NOT REPORTING VARIABLES SUCH AS SKY/WEATHER OR
PRESSURE ARE PROVIDED BY RAWS AND APRS NETWORKS AND ARE NOT UNDER
NATIONAL WEATHER SERVICE QUALITY CONTROL.

...OBSERVATIONS IN AND NEAR THE EASTERN PANHANDLE OF NEBRASKA...

CITY           SKY/WX    TMP DP  RH WIND       PRES   REMARKS
PINE RIDGE     CLOUDY    60  56  86 S7        30.08R
CHADRON        HVY RAIN  55  49  80 NW8G37    30.11R
ALLIANCE       CLEAR     53  51  93 E3        30.08R
SIDNEY         CLOUDY    55  54  96 S9        30.11R FOG
CRESCENT LAKE    N/A     55  55 100 CALM        N/A
$$

...OBSERVATIONS IN NORTHERN NEBRASKA AND FAR SOUTHERN SOUTH DAKOTA...

CITY           SKY/WX    TMP DP  RH WIND       PRES   REMARKS
WINNER         FAIR      58  56  93 SW3       30.06R
VALENTINE      CLOUDY    56  55  97 N3        30.09R
THEDFORD       PTCLDY    57  56  95 CALM      30.07S
AINSWORTH      CLOUDY    59  57  92 SE5       30.08R
O`NEILL        CLOUDY    64  60  86 SE7       30.06S
ORD            CLOUDY    64  61  90 S3        30.06R
BROKEN BOW     CLOUDY    62  61  96 E7        30.03F
VALENTINE NWR    N/A     56  55  98 CALM        N/A
BUTTE            N/A     60  56  88 E3          N/A
HALSEY           N/A     59  57  92 SE3         N/A
EWING            N/A     61  60  96 CALM        N/A
$$

...OBSERVATIONS IN SOUTHWEST NEBRASKA AND FAR NORTHEAST COLORADO...

CITY           SKY/WX    TMP DP  RH WIND       PRES   REMARKS
WRAY           FAIR      54  54 100 CALM      30.09S
HOLYOKE        FOG       59  55  88 S3        30.10R VSB 1/4
IMPERIAL       PTCLDY    52  51  97 CALM      30.08S FOG
OGALLALA       CLOUDY    58  56  93 CALM      30.08S
NORTH PLATTE   CLEAR     55  53  93 W6        30.06R FOG
MCCOOK         CLEAR     54  53  97 W5        30.05F
LEXINGTON      MOCLDY    60  57  87 W6        30.04F
STAPLETON        N/A     56  55  96 CALM        N/A
GOTHENBURG       N/A     62  57  83 CALM        N/A
CALLAWAY         N/A     60  57  91 E3          N/A
$$

...OBSERVATIONS IN CENTRAL LINCOLN COUNTY AREA...

CITY           SKY/WX    TMP DP  RH WIND       PRES   REMARKS
N.P. AIRPORT   CLEAR     55  53  93 W6        30.06R FOG
N.P. DOWNTOWN    N/A     57  56  97 CALM        N/A
N.P. SOUTHEAST   N/A     58  56  94 CALM        N/A
N.P. HILLCREST   N/A     57  56  96 NW3         N/A
$$

...SOME OBSERVATIONS FROM AROUND THE REGION...

CITY           SKY/WX    TMP DP  RH WIND       PRES   REMARKS
DENVER         PTCLDY    56  49  77 S10       30.11F
LARAMIE        CLOUDY    56  36  47 W10G20    30.21R
CHEYENNE       CLOUDY    54  47  77 SW10      30.18R
SCOTTSBLUFF    CLOUDY    58  55  90 SE9       30.07S
RAPID CITY     CLOUDY    58  56  93 CALM      30.04F
BISMARCK       CLEAR     55  53  93 SE8       30.00F
PIERRE         PTCLDY    58  54  86 SE9       30.00F
SIOUX FALLS    CLOUDY    66  60  81 SE13      30.08S
OMAHA          MOCLDY    66  62  87 SE3       30.03F
GRAND ISLAND   CLOUDY    64  63  96 SE7       30.05S
KANSAS CITY    LGT RAIN  70  68  93 S12       30.04S
WICHITA        PTCLDY    73  69  87 S8        30.02S
OKLAHOMA CITY  PTCLDY    71  68  90 S5        30.03S
DALLAS         MOCLDY    77  70  79 S8        30.00F
AMARILLO       LGT RAIN  62  59  90 S10       30.14F
DODGE CITY     CLOUDY    69  64  84 SE9       30.05S
HAYS           CLOUDY    64  52  63 N17G24    30.09R
GOODLAND       CLOUDY    53  51  93 SE7       30.09R
$$




USA.gov is the U.S. government's official web portal to all federal, state and local government web resources and services.